Location: Caltech
(34.1382°N, 118.1253°W)
Time: 23:08:25
(UTC-08:00)

Iridium 75 - Visible Passes

Search period start: 05 February 2016 00:00
Search period end: 15 February 2016 00:00
Orbit: 776 x 779 km, 86.4° (Epoch: 05 February)

Date Brightness Start Highest point End Pass type
(mag) Time Alt. Az. Time Alt. Az. Time Alt. Az.
05 Feb 8.5 20:09:26 10° SSW 20:09:51 12° SSW 20:09:51 12° SSW visible
06 Feb 7.2 19:35:40 10° S 19:48:25 - N 19:38:20 31° S visible
07 Feb 8.8 06:10:41 10° NNE 06:14:27 20° E 06:18:11 10° SE visible
07 Feb 6.2 19:02:30 10° SSE 19:07:26 45° E 19:07:56 44° ENE visible
07 Feb 8.6 20:45:08 10° WSW 20:48:21 16° WNW 20:48:45 16° WNW visible
08 Feb 7.0 18:30:02 10° SE 18:34:06 24° E 18:38:12 10° NNE visible
08 Feb 7.7 20:10:01 10° SW 20:14:36 31° W 20:19:13 10° NNW visible
09 Feb 7.7 17:58:59 10° E 18:00:55 12° E 18:02:49 10° ENE visible
09 Feb 6.4 19:35:50 10° SSW 19:40:58 61° W 19:46:09 10° N visible
10 Feb 8.3 06:10:10 10° NNE 06:14:41 29° E 06:19:10 10° SE visible
10 Feb 5.9 19:02:18 10° S 19:07:28 69° E 19:12:39 10° N visible
10 Feb 9.1 20:47:34 10° W 20:48:39 11° WNW 20:49:44 10° WNW visible
11 Feb 9.0 05:37:55 10° NE 05:40:55 15° ENE 05:43:53 10° ESE visible
11 Feb 6.6 18:29:23 10° SSE 18:34:04 35° E 18:38:46 10° NNE visible
11 Feb 8.4 20:10:55 10° SW 20:14:49 21° W 20:18:44 10° NNW visible
12 Feb 7.3 17:57:19 10° ESE 18:00:47 18° E 18:04:16 10° NE visible
12 Feb 7.3 19:36:15 10° SSW 19:41:07 40° W 19:46:01 10° NNW visible
13 Feb 7.5 06:09:54 10° NNE 06:14:51 43° E 06:19:47 10° SSE visible
13 Feb 6.1 19:02:20 10° S 19:07:32 80° W 19:12:46 10° N visible
14 Feb 8.7 05:37:06 10° NNE 05:41:11 23° E 05:45:13 10° SE visible
14 Feb 6.1 18:29:03 10° SSE 18:34:05 52° E 18:39:08 10° NNE visible
14 Feb 8.9 20:12:21 10° WSW 20:15:05 14° WNW 20:17:49 10° NW visible
